Volver al catálogo

COSMOS 1275 DEB

LostPO
NORAD 42201·DEBRIS·🇷🇺 Russia

Lanzado Jun 4, 1981 desde Plesetsk Cosmodrome

Loading…

Próximos Pases (próximas 24 horas)

TLE

ObsoletoSource: Space-Track

Época: Sep 2, 2024, 13:22 UTC

1 42201U 81053TR  24246.55754681  .00041033  00000-0  15931-1 0  9996
2 42201  82.7009 350.4008 0039221 139.7857 220.6243 14.29227364557594

Sigue COSMOS 1275 DEB en tiempo real con AllMySat

Download on the App Store